This demonstration page uses our WeatherBlox Daily Observations layout. Learn more.

Left ArrowRight Arrow

47.50024, -111.30081

Hourly Observations for May 10, 2019

Temp ( °F °C ) Dew Point ( °F °C ) Humidity (%) Winds ( mph kmh ) Pressure ( in mb ) Visibility ( mi km ) Precip ( " mm )
12:53 am 00:53 Clear 40 4.4 30 -1.1 68 68 SSW 10 17 30.02 1017 10 16 0.00 0.00
1:53 am 01:53 Clear 42 5.6 30 -1.1 62 62 SSW 13 20 29.99 1016 10 16 0.00 0.00
2:53 am 02:53 Clear 42 5.6 29 -1.7 60 60 SSW 13 20 29.96 1015 10 16 0.00 0.00
3:53 am 03:53 Cloudy 44 6.7 29 -1.7 55 55 SSW 15 24 29.94 1014 10 16 0.00 0.00
4:53 am 04:53 Mostly Cloudy 44 6.7 28 -2.2 53 53 SSW 14 22 29.92 1013 10 16 0.00 0.00
5:53 am 05:53 Mostly Cloudy 46 7.8 27 -2.8 47 47 SSW 16 26 29.91 1013 10 16 0.00 0.00
6:53 am 06:53 Mostly Cloudy 47 8.3 29 -1.7 50 50 SW 15 24 29.91 1013 10 16 0.00 0.00
7:53 am 07:53 Cloudy 49 9.4 30 -1.1 48 48 SW 14 22 29.93 1014 10 16 0.00 0.00
8:53 am 08:53 Cloudy 53 11.7 31 -0.6 43 43 SW 14 22 29.94 1014 10 16 0.00 0.00
9:53 am 09:53 Cloudy 56 13.3 33 0.6 42 42 WNW 15 24 29.95 1014 10 16 0.00 0.00
10:53 am 10:53 Cloudy 61 16.1 36 2.2 39 39 WNW 12 19 29.94 1014 10 16 0.00 0.03
11:53 am 11:53 Cloudy 60 15.6 38 3.3 44 44 NNW 22 35 29.95 1014 10 16 0.00 0.03
12:53 pm 12:53 Cloudy with Light Rain 56 13.3 40 4.4 55 55 N 18 30 30.00 1016 10 16 0.00 0.03
1:53 pm 13:53 Cloudy 57 13.9 40 4.4 53 53 NW 21 33 29.98 1015 10 16 0.00 0.03
2:53 pm 14:53 Cloudy 56 13.3 40 4.4 55 55 NW 21 33 30.00 1016 10 16 0.00 0.00
3:53 pm 15:53 Cloudy 56 13.3 39 3.9 53 53 NW 17 28 29.98 1015 10 16 0.00 0.00
4:53 pm 16:53 Cloudy 57 13.9 37 2.8 47 47 WNW 16 26 29.97 1015 10 16 0.00 0.00
5:53 pm 17:53 Cloudy 58 14.4 35 1.7 42 42 NW 16 26 29.97 1015 10 16 0.00 0.00
6:53 pm 18:53 Cloudy 58 14.4 34 1.1 41 41 NW 15 24 29.96 1015 10 16 0.00 0.00
7:53 pm 19:53 Cloudy 57 13.9 34 1.1 42 42 NNW 12 19 29.96 1015 10 16 0.00 0.00
8:53 pm 20:53 Cloudy 53 11.7 36 2.2 52 52 WNW 9 15 29.97 1015 10 16 0.00 0.00
9:53 pm 21:53 Cloudy 49 9.4 39 3.9 69 69 WSW 8 13 29.98 1015 10 16 0.00 0.00
10:53 pm 22:53 Cloudy 49 9.4 40 4.4 71 71 SW 8 13 29.97 1015 10 16 0.00 0.00
11:53 pm 23:53 Cloudy 47 8.3 41 5 80 80 E 5 7 29.98 1015 10 16 0.00 0.03

Powered by AerisWeather